Weather History for Trinity Center, CA

Change the Weather History Date:

Saturday, March 16, 2013

  Actual Average (KMHS) Record (KMHS)
Temperature  
Mean Temperature 50 °F 42 °F  
Max Temperature 66 °F 55 °F 77 °F (2007)
Min Temperature 33 °F 30 °F 13 °F (1927)
Degree Days  
Heating Degree Days 16 23  
Month to date heating degree days 381  
Since 1 July heating degree days 4356  
Cooling Degree Days 0 0  
Month to date cooling degree days 0  
Year to date cooling degree days 0  
Moisture  
Dew Point 34 °F    
Average Humidity 65    
Maximum Humidity 93    
Minimum Humidity 22    
Precipitation  
Precipitation 0.00 in 0.20 in 1.93 in (1933)
Month to date precipitation 3.70  
Year to date precipitation 17.99  
Sea Level Pressure  
Sea Level Pressure 30.15 in    
Wind  
Wind Speed 4 mph (NNW)    
Max Wind Speed 16 mph    
Max Gust Speed 30 mph    
Visibility 10 miles    
Events      
T = Trace of Precipitation, MM = Missing Value Source: NWS Daily Summary

Daily Weather History Graph

Daily Weather History Graph

Search for Another Location

Airport:

Trip Planner

Search our weather history database for the weather conditions in past years. The results will help you decide how hot, cold, wet, or windy it might be!

Date:

Astronomy

Mar. 16, 2013 Rise Set
Actual Time 7:20 AM PDT 7:18 PM PDT
Civil Twilight 6:52 AM PDT 7:46 PM PDT
Nautical Twilight 6:20 AM PDT 8:18 PM PDT
Astronomical Twilight 5:48 AM PDT 8:50 PM PDT
Moon 9:51 AM PDT (3/16) No Moon Set
Length of Visible Light 12h 53m
Length of Day
11h 58m
Waxing Crescent, 24% of the Moon is Illuminated
Mar 16
Waxing Crescent
Mar 19
First Quarter
Mar 27
Full
Apr 2
Last Quarter
Apr 10
New

Hourly Weather History & Observations

Time (PDT) Temp. Windchill Dew Point Humidity Pressure Visibility Wind Dir Wind Speed Gust Speed Precip Events Conditions
12:15 AM 41.0 °F - 35.6 °F 81% 30.21 in 10.0 mi Calm Calm - N/A   Clear
12:35 AM 39.2 °F 37.0 °F 35.6 °F 87% 30.21 in 10.0 mi WSW 3.5 mph - N/A   Clear
12:55 AM 39.2 °F 37.0 °F 35.6 °F 87% 30.21 in 10.0 mi West 3.5 mph - N/A   Clear
1:15 AM 39.2 °F 37.0 °F 35.6 °F 87% 30.21 in 10.0 mi West 3.5 mph - N/A   Clear
1:35 AM 37.4 °F 34.9 °F 35.6 °F 93% 30.21 in 10.0 mi West 3.5 mph - N/A   Clear
1:55 AM 37.4 °F - 35.6 °F 93% 30.22 in 10.0 mi Calm Calm - N/A   Clear
2:15 AM 37.4 °F 34.9 °F 35.6 °F 93% 30.22 in 10.0 mi West 3.5 mph - N/A   Clear
2:35 AM 37.4 °F 34.9 °F 35.6 °F 93% 30.22 in 10.0 mi West 3.5 mph - N/A   Clear
2:55 AM 37.4 °F 33.8 °F 35.6 °F 93% 30.21 in 10.0 mi West 4.6 mph - N/A   Clear
3:15 AM 37.4 °F 34.9 °F 35.6 °F 93% 30.21 in 10.0 mi West 3.5 mph - N/A   Clear
3:35 AM 35.6 °F 32.8 °F 33.8 °F 93% 30.20 in 10.0 mi West 3.5 mph - N/A   Clear
3:55 AM 35.6 °F - 33.8 °F 93% 30.19 in 10.0 mi Calm Calm - N/A   Clear
4:15 AM 35.6 °F 32.8 °F 33.8 °F 93% 30.19 in 10.0 mi West 3.5 mph - N/A   Clear
4:35 AM 35.6 °F 31.7 °F 32.0 °F 87% 30.20 in 10.0 mi West 4.6 mph - N/A   Clear
4:55 AM 35.6 °F 32.8 °F 33.8 °F 93% 30.19 in 10.0 mi West 3.5 mph - N/A   Clear
5:15 AM 33.8 °F 30.8 °F 32.0 °F 93% 30.19 in 10.0 mi West 3.5 mph - N/A   Clear
5:35 AM 33.8 °F 28.6 °F 32.0 °F 93% 30.18 in 10.0 mi West 5.8 mph - N/A   Scattered Clouds
5:55 AM 33.8 °F 28.6 °F 32.0 °F 93% 30.19 in 8.0 mi West 5.8 mph - N/A   Mostly Cloudy
6:15 AM 33.8 °F 30.8 °F 32.0 °F 93% 30.19 in 10.0 mi West 3.5 mph - N/A   Scattered Clouds
6:35 AM 33.8 °F - 32.0 °F 93% 30.19 in 9.0 mi Calm Calm - N/A   Mostly Cloudy
6:50 AM 33.8 °F 29.6 °F 32.0 °F 93% 30.18 in 10.0 mi West 4.6 mph - N/A   Mostly Cloudy
7:15 AM 33.8 °F - 32.0 °F 93% 30.20 in 10.0 mi Calm Calm - N/A   Scattered Clouds
7:35 AM 33.8 °F - 32.0 °F 93% 30.20 in 10.0 mi Calm Calm - N/A   Mostly Cloudy
7:55 AM 35.6 °F 32.8 °F 32.0 °F 87% 30.19 in 10.0 mi West 3.5 mph - N/A   Overcast
8:15 AM 35.6 °F - 33.8 °F 93% 30.18 in 10.0 mi Calm Calm - N/A   Overcast
8:35 AM 37.4 °F - 35.6 °F 93% 30.18 in 10.0 mi Calm Calm - N/A   Overcast
8:55 AM 39.2 °F - 37.4 °F 93% 30.19 in 9.0 mi Calm Calm - N/A   Overcast
9:15 AM 39.2 °F - 37.4 °F 93% 30.19 in 10.0 mi Calm Calm - N/A   Overcast
9:35 AM 39.2 °F - 37.4 °F 93% 30.20 in 10.0 mi Calm Calm - N/A   Overcast
9:55 AM 41.0 °F - 39.2 °F 93% 30.20 in 10.0 mi Calm Calm - N/A   Overcast
10:15 AM 41.0 °F 39.0 °F 39.2 °F 93% 30.20 in 10.0 mi SE 3.5 mph - N/A   Mostly Cloudy
10:35 AM 42.8 °F 41.1 °F 39.2 °F 87% 30.20 in 10.0 mi SE 3.5 mph - N/A   Partly Cloudy
10:55 AM 44.6 °F - 39.2 °F 81% 30.19 in 10.0 mi Calm Calm - N/A   Clear
11:15 AM 46.4 °F 44.3 °F 37.4 °F 71% 30.19 in 10.0 mi NE 4.6 mph - N/A   Clear
11:35 AM 48.2 °F - 39.2 °F 71% 30.18 in 10.0 mi Calm Calm - N/A   Clear
11:55 AM 50.0 °F - 39.2 °F 66% 30.16 in 10.0 mi NE 3.5 mph - N/A   Clear
12:15 PM 53.6 °F - 39.2 °F 58% 30.15 in 10.0 mi NE 3.5 mph - N/A   Clear
12:35 PM 53.6 °F - 37.4 °F 54% 30.14 in 10.0 mi Calm Calm - N/A   Clear
12:55 PM 53.6 °F - 37.4 °F 54% 30.13 in 10.0 mi SSE 4.6 mph - N/A   Clear
1:15 PM 57.2 °F - 39.2 °F 51% 30.12 in 10.0 mi ENE 4.6 mph - N/A   Clear
1:35 PM 59.0 °F - 39.2 °F 48% 30.11 in 10.0 mi NNW 4.6 mph - N/A   Clear
1:55 PM 64.4 °F - 24.8 °F 22% 30.10 in 10.0 mi West 10.4 mph 18.4 mph N/A   Partly Cloudy
2:10 PM 64.4 °F - 24.8 °F 22% 30.09 in 10.0 mi WNW 9.2 mph 24.2 mph N/A   Mostly Cloudy
2:35 PM 66.2 °F - 26.6 °F 23% 30.09 in 10.0 mi NNW 9.2 mph 20.7 mph N/A   Partly Cloudy
2:55 PM 66.2 °F - 26.6 °F 23% 30.08 in 10.0 mi NNW 15.0 mph 21.9 mph N/A   Mostly Cloudy
3:15 PM 66.2 °F - 26.6 °F 23% 30.08 in 10.0 mi NW 15.0 mph 23.0 mph N/A   Mostly Cloudy
3:35 PM 64.4 °F - 28.4 °F 26% 30.09 in 10.0 mi NNW 13.8 mph 20.7 mph N/A   Partly Cloudy
3:55 PM 64.4 °F - 28.4 °F 26% 30.09 in 10.0 mi North 5.8 mph - N/A   Scattered Clouds
4:15 PM 64.4 °F - 32.0 °F 30% 30.08 in 10.0 mi North 9.2 mph 16.1 mph N/A   Overcast
4:35 PM 64.4 °F - 32.0 °F 30% 30.08 in 10.0 mi North 6.9 mph - N/A   Mostly Cloudy
4:55 PM 64.4 °F - 33.8 °F 32% 30.08 in 10.0 mi NNE 10.4 mph 16.1 mph N/A   Overcast
5:15 PM 62.6 °F - 32.0 °F 32% 30.08 in 10.0 mi WNW 6.9 mph 24.2 mph N/A   Overcast
5:35 PM 62.6 °F - 32.0 °F 32% 30.09 in 10.0 mi ESE 5.8 mph - N/A   Overcast
5:55 PM 60.8 °F - 32.0 °F 34% 30.09 in 10.0 mi NW 5.8 mph - N/A   Overcast
6:15 PM 59.0 °F - 33.8 °F 39% 30.10 in 10.0 mi NNW 3.5 mph - N/A   Overcast
6:35 PM 57.2 °F - 35.6 °F 44% 30.10 in 10.0 mi North 8.1 mph - N/A   Overcast
6:55 PM 55.4 °F - 35.6 °F 47% 30.11 in 10.0 mi NNE 9.2 mph - N/A   Mostly Cloudy
7:10 PM 55.4 °F - 35.6 °F 47% 30.11 in 10.0 mi NE 10.4 mph 18.4 mph N/A   Mostly Cloudy
7:35 PM 53.6 °F - 35.6 °F 51% 30.11 in 10.0 mi NNE 10.4 mph 21.9 mph N/A   Mostly Cloudy
7:55 PM 53.6 °F - 35.6 °F 51% 30.11 in 10.0 mi NNE 9.2 mph 20.7 mph N/A   Mostly Cloudy
8:15 PM 53.6 °F - 33.8 °F 47% 30.11 in 10.0 mi North 6.9 mph 23.0 mph N/A   Scattered Clouds
8:35 PM 51.8 °F - 33.8 °F 50% 30.12 in 10.0 mi North 5.8 mph - N/A   Partly Cloudy
8:55 PM 48.2 °F - 35.6 °F 62% 30.12 in 10.0 mi WNW 6.9 mph - N/A   Scattered Clouds
9:15 PM 50.0 °F - 32.0 °F 50% 30.12 in 10.0 mi NNE 8.1 mph - N/A   Partly Cloudy
9:35 PM 50.0 °F - 32.0 °F 50% 30.13 in 10.0 mi NE 13.8 mph 29.9 mph N/A   Clear
9:55 PM 50.0 °F - 32.0 °F 50% 30.13 in 10.0 mi NNE 8.1 mph - N/A   Clear
10:15 PM 50.0 °F - 32.0 °F 50% 30.13 in 10.0 mi North 10.4 mph 18.4 mph N/A   Clear
10:35 PM 50.0 °F - 32.0 °F 50% 30.14 in 10.0 mi NNE 16.1 mph 24.2 mph N/A   Clear
10:55 PM 50.0 °F - 32.0 °F 50% 30.14 in 10.0 mi North 6.9 mph 24.2 mph N/A   Clear
11:15 PM 50.0 °F - 28.4 °F 43% 30.14 in 10.0 mi NE 10.4 mph 23.0 mph N/A   Clear
11:35 PM 50.0 °F - 28.4 °F 43% 30.15 in 10.0 mi North 10.4 mph 21.9 mph N/A   Clear
11:55 PM 48.2 °F - 26.6 °F 43% 30.15 in 10.0 mi NNW 8.1 mph 19.6 mph N/A   Clear